Time,TemperatureF,DewpointF,PressureIn,WindDirection,WindDirectionDegrees,WindSpeedMPH,WindSpeedGustMPH,Humidity,HourlyPrecipIn,Conditions,Clouds,dailyrainin,SoftwareType,DateUTC
2013-06-16 00:01:00,62.5,56.5,30.02,NNW,337,2.8,4.0,81,0.00,,,0.00,Rainwise IP-100,2013-06-16 04:01:00,
2013-06-16 00:06:00,62.5,56.5,30.02,NW,315,3.5,3.5,80,0.00,,,0.00,Rainwise IP-100,2013-06-16 04:06:00,
2013-06-16 00:11:00,62.6,56.0,30.01,NW,315,3.5,4.2,79,0.00,,,0.00,Rainwise IP-100,2013-06-16 04:11:00,
2013-06-16 00:16:00,62.6,56.5,30.01,NNW,337,3.3,3.5,80,0.00,,,0.00,Rainwise IP-100,2013-06-16 04:16:00,
2013-06-16 00:21:00,62.3,56.5,30.01,NNW,337,4.0,4.0,80,0.00,,,0.00,Rainwise IP-100,2013-06-16 04:21:00,
2013-06-16 00:26:00,62.2,56.0,30.01,NNW,337,4.0,4.9,80,0.00,,,0.00,Rainwise IP-100,2013-06-16 04:26:00,
2013-06-16 00:31:00,62.2,56.0,30.01,NNW,337,3.0,4.7,80,0.00,,,0.00,Rainwise IP-100,2013-06-16 04:31:00,
2013-06-16 00:32:00,62.2,56.0,30.01,NNW,337,2.8,4.7,80,0.00,,,0.00,Rainwise IP-100,2013-06-16 04:32:00,
2013-06-16 00:37:00,62.0,56.0,30.01,NNW,337,3.0,4.7,81,0.00,,,0.00,Rainwise IP-100,2013-06-16 04:37:00,
2013-06-16 00:42:00,61.7,56.0,30.01,NNW,337,3.0,5.1,81,0.00,,,0.00,Rainwise IP-100,2013-06-16 04:42:00,
2013-06-16 00:47:00,61.7,56.0,30.01,NNW,337,4.2,4.9,81,0.00,,,0.00,Rainwise IP-100,2013-06-16 04:47:00,
2013-06-16 00:52:00,61.6,56.0,30.01,NNW,337,3.5,4.9,81,0.00,,,0.00,Rainwise IP-100,2013-06-16 04:52:00,
2013-06-16 00:57:00,61.3,56.0,30.02,NNW,337,3.7,5.1,82,0.00,,,0.00,Rainwise IP-100,2013-06-16 04:57:00,
2013-06-16 01:02:00,61.1,55.0,30.02,NNW,337,4.9,6.3,82,0.00,,,0.00,Rainwise IP-100,2013-06-16 05:02:00,
2013-06-16 01:08:00,61.2,55.0,30.02,NNW,337,4.4,7.0,82,0.00,,,0.00,Rainwise IP-100,2013-06-16 05:08:00,
2013-06-16 01:13:00,61.6,55.0,30.02,NNW,337,5.4,7.5,80,0.00,,,0.00,Rainwise IP-100,2013-06-16 05:13:00,
2013-06-16 01:18:00,61.7,54.5,30.02,NNW,337,3.7,6.8,79,0.00,,,0.00,Rainwise IP-100,2013-06-16 05:18:00,
2013-06-16 01:23:00,61.6,54.5,30.02,NW,315,5.4,7.0,79,0.00,,,0.00,Rainwise IP-100,2013-06-16 05:23:00,
2013-06-16 01:28:00,61.5,55.0,30.02,NNW,337,2.6,7.0,80,0.00,,,0.00,Rainwise IP-100,2013-06-16 05:28:00,
2013-06-16 01:33:00,61.4,55.0,30.02,NNW,337,0.0,5.8,80,0.00,,,0.00,Rainwise IP-100,2013-06-16 05:33:00,
2013-06-16 01:38:00,61.3,54.5,30.02,NNW,337,1.4,2.8,79,0.00,,,0.00,Rainwise IP-100,2013-06-16 05:38:00,
2013-06-16 01:43:00,61.3,54.5,30.02,NNW,337,0.0,1.6,79,0.00,,,0.00,Rainwise IP-100,2013-06-16 05:43:00,
2013-06-16 01:49:00,61.3,54.5,30.02,NNW,337,3.3,3.3,79,0.00,,,0.00,Rainwise IP-100,2013-06-16 05:49:00,
2013-06-16 01:54:00,61.0,54.5,30.02,NNW,337,3.3,4.0,80,0.00,,,0.00,Rainwise IP-100,2013-06-16 05:54:00,
2013-06-16 01:59:00,60.5,54.5,30.02,NNW,337,2.8,4.0,82,0.00,,,0.00,Rainwise IP-100,2013-06-16 05:59:00,
2013-06-16 02:04:00,60.0,55.0,30.02,NNW,337,3.5,4.2,84,0.00,,,0.00,Rainwise IP-100,2013-06-16 06:04:00,
2013-06-16 02:09:00,59.7,54.5,30.02,NNW,337,4.0,4.9,85,0.00,,,0.00,Rainwise IP-100,2013-06-16 06:09:00,
2013-06-16 02:14:00,59.6,54.5,30.02,NNW,337,1.4,5.1,85,0.00,,,0.00,Rainwise IP-100,2013-06-16 06:14:00,
2013-06-16 02:19:00,59.7,54.5,30.02,North,360,1.6,3.5,84,0.00,,,0.00,Rainwise IP-100,2013-06-16 06:19:00,
2013-06-16 02:25:00,59.9,54.5,30.02,North,360,2.1,3.5,83,0.00,,,0.00,Rainwise IP-100,2013-06-16 06:25:00,
2013-06-16 02:30:00,60.0,54.5,30.02,NNW,337,4.4,5.1,83,0.00,,,0.00,Rainwise IP-100,2013-06-16 06:30:00,
2013-06-16 02:35:00,60.0,54.5,30.02,NNW,337,2.8,6.1,83,0.00,,,0.00,Rainwise IP-100,2013-06-16 06:35:00,
2013-06-16 02:40:00,59.8,55.0,30.02,NNW,337,1.9,4.0,84,0.00,,,0.00,Rainwise IP-100,2013-06-16 06:40:00,
2013-06-16 02:45:00,59.6,54.5,30.02,NNW,337,0.0,3.0,84,0.00,,,0.00,Rainwise IP-100,2013-06-16 06:45:00,
2013-06-16 02:50:00,59.4,54.5,30.02,NNW,337,1.6,1.6,85,0.00,,,0.00,Rainwise IP-100,2013-06-16 06:50:00,
2013-06-16 02:55:00,59.2,54.5,30.02,NNW,337,2.3,3.3,85,0.00,,,0.00,Rainwise IP-100,2013-06-16 06:55:00,
2013-06-16 03:00:00,59.5,54.5,30.02,NNW,337,2.6,3.5,84,0.00,,,0.00,Rainwise IP-100,2013-06-16 07:00:00,
2013-06-16 03:06:00,59.8,54.5,30.02,NNW,337,2.6,3.5,83,0.00,,,0.00,Rainwise IP-100,2013-06-16 07:06:00,
2013-06-16 03:11:00,59.7,54.5,30.02,NNW,337,2.6,3.5,84,0.00,,,0.00,Rainwise IP-100,2013-06-16 07:11:00,
2013-06-16 03:16:00,59.4,54.5,30.02,NNW,337,2.6,3.3,84,0.00,,,0.00,Rainwise IP-100,2013-06-16 07:16:00,
2013-06-16 03:21:00,59.3,54.5,30.02,NNW,337,0.0,2.8,84,0.00,,,0.00,Rainwise IP-100,2013-06-16 07:21:00,
2013-06-16 03:26:00,59.4,54.5,30.02,SE,135,2.6,2.6,84,0.00,,,0.00,Rainwise IP-100,2013-06-16 07:26:00,
2013-06-16 03:31:00,59.7,54.0,30.02,NNW,337,2.1,3.3,83,0.00,,,0.00,Rainwise IP-100,2013-06-16 07:31:00,
2013-06-16 03:36:00,59.8,54.5,30.02,NNW,337,4.0,4.7,83,0.00,,,0.00,Rainwise IP-100,2013-06-16 07:36:00,
2013-06-16 03:42:00,59.6,54.5,30.01,NNW,337,3.5,4.7,84,0.00,,,0.00,Rainwise IP-100,2013-06-16 07:42:00,
2013-06-16 03:47:00,59.2,54.5,30.02,NNW,337,3.7,4.7,85,0.00,,,0.00,Rainwise IP-100,2013-06-16 07:47:00,
2013-06-16 03:52:00,58.7,54.5,30.02,NNW,337,3.3,5.1,86,0.00,,,0.00,Rainwise IP-100,2013-06-16 07:52:00,
2013-06-16 03:57:00,58.7,54.5,30.02,NNW,337,3.7,4.4,86,0.00,,,0.00,Rainwise IP-100,2013-06-16 07:57:00,
2013-06-16 04:02:00,59.1,54.0,30.02,NNW,337,2.1,3.7,84,0.00,,,0.00,Rainwise IP-100,2013-06-16 08:02:00,
2013-06-16 04:07:00,59.4,54.0,30.02,NNW,337,0.0,2.3,82,0.00,,,0.00,Rainwise IP-100,2013-06-16 08:07:00,
2013-06-16 04:12:00,59.6,53.5,30.02,NNW,337,0.0,0.0,81,0.00,,,0.00,Rainwise IP-100,2013-06-16 08:12:00,
2013-06-16 04:17:00,59.6,53.5,30.02,NNW,337,1.6,2.1,81,0.00,,,0.00,Rainwise IP-100,2013-06-16 08:17:00,
2013-06-16 04:23:00,59.5,54.0,30.02,NNW,337,1.4,2.1,83,0.00,,,0.00,Rainwise IP-100,2013-06-16 08:23:00,
2013-06-16 04:28:00,59.1,54.0,30.02,NNW,337,0.0,1.9,84,0.00,,,0.00,Rainwise IP-100,2013-06-16 08:28:00,
2013-06-16 04:33:00,58.9,54.0,30.03,NNW,337,0.0,0.0,84,0.00,,,0.00,Rainwise IP-100,2013-06-16 08:33:00,
2013-06-16 04:38:00,59.4,54.0,30.02,NNW,337,0.0,0.0,83,0.00,,,0.00,Rainwise IP-100,2013-06-16 08:38:00,
2013-06-16 04:43:00,59.6,54.5,30.02,NNW,337,2.8,2.8,84,0.00,,,0.00,Rainwise IP-100,2013-06-16 08:43:00,
2013-06-16 04:48:00,59.3,54.5,30.01,NNW,337,1.9,3.3,85,0.00,,,0.00,Rainwise IP-100,2013-06-16 08:48:00,
2013-06-16 04:53:00,59.1,54.5,30.02,NNW,337,2.8,4.0,86,0.00,,,0.00,Rainwise IP-100,2013-06-16 08:53:00,
2013-06-16 04:59:00,58.8,55.0,30.02,NNW,337,0.0,3.5,87,0.00,,,0.00,Rainwise IP-100,2013-06-16 08:59:00,
2013-06-16 05:04:00,58.7,55.0,30.01,ESE,112,1.6,3.7,87,0.00,,,0.00,Rainwise IP-100,2013-06-16 09:04:00,
2013-06-16 05:09:00,58.7,55.0,30.00,NNE,22,1.4,3.7,88,0.00,,,0.00,Rainwise IP-100,2013-06-16 09:09:00,
2013-06-16 05:14:00,58.6,55.0,30.01,NW,315,1.9,3.3,88,0.00,,,0.00,Rainwise IP-100,2013-06-16 09:14:00,
2013-06-16 05:19:00,58.6,55.0,30.01,WNW,292,0.0,2.6,88,0.00,,,0.00,Rainwise IP-100,2013-06-16 09:19:00,
2013-06-16 05:24:00,58.4,54.5,30.02,WNW,292,0.0,0.0,88,0.00,,,0.00,Rainwise IP-100,2013-06-16 09:24:00,
2013-06-16 05:29:00,58.2,54.5,30.02,WNW,292,0.0,1.4,88,0.00,,,0.00,Rainwise IP-100,2013-06-16 09:29:00,
2013-06-16 05:34:00,58.2,54.5,30.01,WNW,292,1.4,1.4,88,0.00,,,0.00,Rainwise IP-100,2013-06-16 09:34:00,
2013-06-16 05:40:00,58.5,55.0,30.01,NW,315,3.0,4.0,88,0.00,,,0.00,Rainwise IP-100,2013-06-16 09:40:00,
2013-06-16 05:45:00,58.5,55.0,30.01,NNW,337,3.7,4.2,88,0.00,,,0.00,Rainwise IP-100,2013-06-16 09:45:00,
2013-06-16 05:50:00,58.1,55.0,30.02,NNW,337,3.7,5.1,89,0.00,,,0.00,Rainwise IP-100,2013-06-16 09:50:00,
2013-06-16 05:53:00,57.9,55.0,30.02,NNW,337,5.4,6.1,89,0.00,,,0.00,Rainwise IP-100,2013-06-16 09:53:00,
2013-06-16 05:58:00,58.0,55.0,30.02,NNW,337,4.2,6.3,90,0.00,,,0.00,Rainwise IP-100,2013-06-16 09:58:00,
2013-06-16 06:03:00,58.1,55.0,30.01,NNW,337,3.7,5.6,90,0.00,,,0.00,Rainwise IP-100,2013-06-16 10:03:00,
2013-06-16 06:08:00,58.1,55.0,30.01,NNW,337,5.1,5.1,89,0.00,,,0.00,Rainwise IP-100,2013-06-16 10:08:00,
2013-06-16 06:14:00,58.1,55.0,30.01,NNW,337,4.9,6.3,89,0.00,,,0.00,Rainwise IP-100,2013-06-16 10:14:00,
2013-06-16 06:19:00,58.2,55.0,30.01,NNW,337,3.0,6.1,89,0.00,,,0.00,Rainwise IP-100,2013-06-16 10:19:00,
2013-06-16 06:24:00,58.3,54.5,30.02,NNW,337,2.8,4.2,88,0.00,,,0.00,Rainwise IP-100,2013-06-16 10:24:00,
2013-06-16 06:29:00,58.4,54.5,30.02,NNW,337,4.4,4.4,88,0.00,,,0.00,Rainwise IP-100,2013-06-16 10:29:00,
2013-06-16 06:34:00,58.7,55.0,30.02,NNW,337,3.5,5.4,87,0.00,,,0.00,Rainwise IP-100,2013-06-16 10:34:00,
2013-06-16 06:39:00,59.1,54.5,30.02,NNW,337,4.2,4.4,86,0.00,,,0.00,Rainwise IP-100,2013-06-16 10:39:00,
2013-06-16 06:44:00,59.7,54.5,30.02,NNW,337,4.7,4.9,85,0.00,,,0.00,Rainwise IP-100,2013-06-16 10:44:00,
2013-06-16 06:49:00,60.1,54.5,30.02,NNW,337,2.8,6.1,83,0.00,,,0.00,Rainwise IP-100,2013-06-16 10:49:00,
2013-06-16 06:52:00,60.3,54.5,30.02,NNW,337,4.9,5.8,82,0.00,,,0.00,Rainwise IP-100,2013-06-16 10:52:00,
2013-06-16 06:57:00,60.5,54.5,30.02,NNW,337,3.5,5.8,81,0.00,,,0.00,Rainwise IP-100,2013-06-16 10:57:00,
2013-06-16 07:02:00,60.6,54.5,30.02,NNW,337,3.7,4.7,81,0.00,,,0.00,Rainwise IP-100,2013-06-16 11:02:00,
2013-06-16 07:03:00,60.6,54.5,30.02,NNW,337,4.4,4.7,81,0.00,,,0.00,Rainwise IP-100,2013-06-16 11:03:00,
2013-06-16 07:05:00,60.7,54.5,30.01,NNW,337,4.0,4.7,81,0.00,,,0.00,Rainwise IP-100,2013-06-16 11:05:00,
2013-06-16 07:10:00,60.9,55.0,30.02,NNW,337,3.0,4.4,81,0.00,,,0.00,Rainwise IP-100,2013-06-16 11:10:00,
2013-06-16 07:15:00,61.0,55.0,30.02,NNW,337,2.1,4.0,81,0.00,,,0.00,Rainwise IP-100,2013-06-16 11:15:00,
2013-06-16 07:20:00,61.1,55.0,30.02,NNW,337,2.6,2.6,82,0.00,,,0.00,Rainwise IP-100,2013-06-16 11:20:00,
2013-06-16 07:25:00,61.3,56.0,30.02,NNW,337,1.9,4.0,81,0.00,,,0.00,Rainwise IP-100,2013-06-16 11:25:00,
2013-06-16 07:30:00,61.4,56.0,30.02,NNW,337,2.6,3.3,81,0.00,,,0.00,Rainwise IP-100,2013-06-16 11:30:00,
2013-06-16 07:35:00,61.5,56.0,30.01,NNW,337,0.0,3.0,81,0.00,,,0.00,Rainwise IP-100,2013-06-16 11:35:00,
2013-06-16 07:41:00,61.5,56.0,30.02,NNW,337,1.4,1.9,81,0.00,,,0.00,Rainwise IP-100,2013-06-16 11:41:00,
2013-06-16 07:46:00,61.6,56.0,30.02,NNW,337,1.9,1.9,82,0.00,,,0.00,Rainwise IP-100,2013-06-16 11:46:00,
2013-06-16 07:51:00,61.9,56.5,30.02,NNW,337,1.4,2.1,83,0.00,,,0.00,Rainwise IP-100,2013-06-16 11:51:00,
2013-06-16 07:56:00,62.2,56.5,30.02,NNW,337,0.0,1.6,83,0.00,,,0.00,Rainwise IP-100,2013-06-16 11:56:00,
2013-06-16 08:01:00,62.6,57.0,30.02,NNW,337,0.0,0.0,82,0.00,,,0.00,Rainwise IP-100,2013-06-16 12:01:00,
2013-06-16 08:06:00,63.0,57.0,30.02,NNW,337,0.0,1.4,81,0.00,,,0.00,Rainwise IP-100,2013-06-16 12:06:00,
2013-06-16 08:11:00,62.9,57.0,30.02,SE,135,2.3,2.3,81,0.00,,,0.00,Rainwise IP-100,2013-06-16 12:11:00,
2013-06-16 08:17:00,62.6,56.5,30.01,SE,135,1.9,3.0,81,0.00,,,0.00,Rainwise IP-100,2013-06-16 12:17:00,
2013-06-16 08:22:00,62.6,57.0,30.01,SE,135,1.9,2.6,82,0.00,,,0.00,Rainwise IP-100,2013-06-16 12:22:00,
2013-06-16 08:27:00,63.1,57.5,30.01,SE,135,1.2,2.3,82,0.00,,,0.00,Rainwise IP-100,2013-06-16 12:27:00,
2013-06-16 08:32:00,64.0,58.0,30.01,SE,135,1.4,1.6,81,0.00,,,0.00,Rainwise IP-100,2013-06-16 12:32:00,
2013-06-16 08:37:00,64.6,57.5,30.01,SE,135,2.8,2.8,79,0.00,,,0.00,Rainwise IP-100,2013-06-16 12:37:00,
2013-06-16 08:42:00,64.4,57.5,30.01,SE,135,1.2,3.0,78,0.00,,,0.00,Rainwise IP-100,2013-06-16 12:42:00,
2013-06-16 08:47:00,64.3,57.0,30.01,SE,135,1.4,2.3,77,0.00,,,0.00,Rainwise IP-100,2013-06-16 12:47:00,
2013-06-16 08:52:00,64.5,56.5,30.00,SE,135,2.3,2.3,75,0.00,,,0.00,Rainwise IP-100,2013-06-16 12:52:00,
2013-06-16 08:58:00,64.6,56.5,30.01,SSE,157,4.0,4.0,76,0.00,,,0.00,Rainwise IP-100,2013-06-16 12:58:00,
2013-06-16 09:03:00,65.8,57.0,30.00,SSE,157,4.7,4.9,74,0.00,,,0.00,Rainwise IP-100,2013-06-16 13:03:00,
2013-06-16 09:08:00,66.3,57.0,30.00,SSE,157,5.1,5.4,72,0.00,,,0.00,Rainwise IP-100,2013-06-16 13:08:00,
2013-06-16 09:13:00,66.2,56.5,29.99,South,180,2.8,5.4,71,0.00,,,0.00,Rainwise IP-100,2013-06-16 13:13:00,
2013-06-16 09:18:00,66.1,56.0,29.99,South,180,1.9,4.0,71,0.00,,,0.00,Rainwise IP-100,2013-06-16 13:18:00,
2013-06-16 09:23:00,66.2,56.5,29.99,South,180,1.9,2.3,71,0.00,,,0.00,Rainwise IP-100,2013-06-16 13:23:00,
2013-06-16 09:28:00,66.0,56.5,29.99,SSE,157,4.2,4.2,72,0.00,,,0.00,Rainwise IP-100,2013-06-16 13:28:00,
2013-06-16 09:34:00,66.2,57.0,29.99,SSE,157,5.4,5.4,73,0.00,,,0.00,Rainwise IP-100,2013-06-16 13:34:00,
2013-06-16 09:39:00,66.7,58.0,29.99,SSE,157,6.3,6.3,74,0.00,,,0.00,Rainwise IP-100,2013-06-16 13:39:00,
2013-06-16 09:44:00,67.1,58.0,29.98,SSE,157,5.8,6.8,73,0.00,,,0.00,Rainwise IP-100,2013-06-16 13:44:00,
2013-06-16 09:49:00,67.0,58.0,29.98,SSE,157,5.8,7.0,73,0.00,,,0.00,Rainwise IP-100,2013-06-16 13:49:00,
2013-06-16 09:54:00,66.6,58.0,29.98,SSE,157,6.5,6.8,74,0.00,,,0.00,Rainwise IP-100,2013-06-16 13:54:00,
2013-06-16 09:59:00,66.1,58.0,29.98,SSE,157,4.9,6.8,76,0.00,,,0.00,Rainwise IP-100,2013-06-16 13:59:00,
2013-06-16 10:04:00,66.4,58.0,29.99,SSE,157,5.8,6.8,76,0.00,,,0.00,Rainwise IP-100,2013-06-16 14:04:00,
2013-06-16 10:09:00,67.0,59.0,29.97,SSE,157,4.0,6.5,74,0.00,,,0.00,Rainwise IP-100,2013-06-16 14:09:00,
2013-06-16 10:15:00,67.3,58.0,29.97,South,180,2.3,5.4,72,0.00,,,0.00,Rainwise IP-100,2013-06-16 14:15:00,
2013-06-16 10:20:00,67.7,57.5,29.97,SSW,202,1.6,5.4,71,0.00,,,0.00,Rainwise IP-100,2013-06-16 14:20:00,
2013-06-16 10:25:00,68.6,57.5,29.97,South,180,4.2,5.4,68,0.00,,,0.00,Rainwise IP-100,2013-06-16 14:25:00,
2013-06-16 10:30:00,69.5,57.5,29.96,SSW,202,2.6,5.8,66,0.00,,,0.00,Rainwise IP-100,2013-06-16 14:30:00,
2013-06-16 10:35:00,70.3,57.5,29.96,SW,225,2.6,6.3,64,0.00,,,0.00,Rainwise IP-100,2013-06-16 14:35:00,
2013-06-16 10:40:00,71.0,57.5,29.96,SSW,202,1.9,3.7,63,0.00,,,0.00,Rainwise IP-100,2013-06-16 14:40:00,
2013-06-16 10:45:00,71.5,58.0,29.96,SSW,202,4.0,5.4,63,0.00,,,0.00,Rainwise IP-100,2013-06-16 14:45:00,
2013-06-16 10:51:00,71.9,58.0,29.96,SSE,157,3.3,5.4,62,0.00,,,0.00,Rainwise IP-100,2013-06-16 14:51:00,
2013-06-16 10:56:00,71.5,57.5,29.96,SSE,157,3.3,5.6,62,0.00,,,0.00,Rainwise IP-100,2013-06-16 14:56:00,
2013-06-16 11:01:00,71.1,58.0,29.95,SSE,157,3.0,5.8,64,0.00,,,0.00,Rainwise IP-100,2013-06-16 15:01:00,
2013-06-16 11:06:00,70.7,58.0,29.95,SSE,157,3.3,4.2,65,0.00,,,0.00,Rainwise IP-100,2013-06-16 15:06:00,
2013-06-16 11:11:00,70.9,58.0,29.95,SSE,157,3.3,4.4,65,0.00,,,0.00,Rainwise IP-100,2013-06-16 15:11:00,
2013-06-16 11:16:00,71.3,59.0,29.95,South,180,5.1,7.2,65,0.00,,,0.00,Rainwise IP-100,2013-06-16 15:16:00,
2013-06-16 11:21:00,72.0,59.0,29.95,SSE,157,4.4,7.2,63,0.00,,,0.00,Rainwise IP-100,2013-06-16 15:21:00,
2013-06-16 11:26:00,72.8,59.0,29.94,South,180,4.0,6.5,62,0.00,,,0.00,Rainwise IP-100,2013-06-16 15:26:00,
2013-06-16 11:32:00,72.2,59.0,29.94,SSE,157,3.5,5.6,62,0.00,,,0.00,Rainwise IP-100,2013-06-16 15:32:00,
2013-06-16 11:37:00,71.7,58.0,29.94,SSE,157,5.1,5.6,63,0.00,,,0.00,Rainwise IP-100,2013-06-16 15:37:00,
2013-06-16 11:42:00,72.0,58.0,29.93,SSE,157,4.4,6.8,62,0.00,,,0.00,Rainwise IP-100,2013-06-16 15:42:00,
2013-06-16 11:47:00,71.5,57.5,29.93,SSE,157,5.1,6.1,62,0.00,,,0.00,Rainwise IP-100,2013-06-16 15:47:00,
2013-06-16 11:52:00,71.1,57.5,29.93,SE,135,3.5,5.1,63,0.00,,,0.00,Rainwise IP-100,2013-06-16 15:52:00,
2013-06-16 11:57:00,71.7,57.5,29.92,SSE,157,4.7,5.8,62,0.00,,,0.00,Rainwise IP-100,2013-06-16 15:57:00,
2013-06-16 12:02:00,72.4,57.5,29.92,SE,135,4.2,5.4,60,0.00,,,0.00,Rainwise IP-100,2013-06-16 16:02:00,
2013-06-16 12:08:00,72.5,57.0,29.92,SSE,157,4.2,5.8,58,0.00,,,0.00,Rainwise IP-100,2013-06-16 16:08:00,
2013-06-16 12:13:00,72.3,56.5,29.91,ESE,112,2.8,5.1,57,0.00,,,0.00,Rainwise IP-100,2013-06-16 16:13:00,
2013-06-16 12:18:00,71.9,56.5,29.91,SE,135,3.5,4.7,58,0.00,,,0.00,Rainwise IP-100,2013-06-16 16:18:00,
2013-06-16 12:23:00,71.7,57.0,29.91,SE,135,3.3,5.4,60,0.00,,,0.00,Rainwise IP-100,2013-06-16 16:23:00,
2013-06-16 12:28:00,71.7,57.5,29.91,SE,135,2.3,3.5,61,0.00,,,0.00,Rainwise IP-100,2013-06-16 16:28:00,
2013-06-16 12:33:00,72.0,58.0,29.90,SSE,157,2.6,3.5,62,0.00,,,0.00,Rainwise IP-100,2013-06-16 16:33:00,
2013-06-16 12:38:00,72.3,59.0,29.90,SE,135,6.1,6.1,63,0.00,,,0.00,Rainwise IP-100,2013-06-16 16:38:00,
2013-06-16 12:43:00,72.3,59.0,29.90,SSW,202,8.4,8.4,62,0.00,,,0.00,Rainwise IP-100,2013-06-16 16:43:00,
2013-06-16 12:49:00,73.3,58.0,29.90,South,180,6.5,12.4,59,0.00,,,0.00,Rainwise IP-100,2013-06-16 16:49:00,
2013-06-16 12:54:00,74.6,57.5,29.90,South,180,7.5,12.1,55,0.00,,,0.00,Rainwise IP-100,2013-06-16 16:54:00,
2013-06-16 12:59:00,75.4,56.0,29.90,South,180,10.7,11.9,51,0.00,,,0.00,Rainwise IP-100,2013-06-16 16:59:00,
2013-06-16 13:04:00,75.7,54.5,29.90,South,180,7.9,11.2,48,0.00,,,0.00,Rainwise IP-100,2013-06-16 17:04:00,
2013-06-16 13:09:00,75.7,54.5,29.89,SSW,202,8.4,13.3,48,0.00,,,0.00,Rainwise IP-100,2013-06-16 17:09:00,
2013-06-16 13:14:00,75.7,54.5,29.89,SSW,202,8.6,11.9,48,0.00,,,0.00,Rainwise IP-100,2013-06-16 17:14:00,
2013-06-16 13:19:00,75.7,54.5,29.88,SSW,202,8.2,11.7,48,0.00,,,0.00,Rainwise IP-100,2013-06-16 17:19:00,
2013-06-16 13:25:00,75.9,54.5,29.88,South,180,10.5,13.3,48,0.00,,,0.00,Rainwise IP-100,2013-06-16 17:25:00,
2013-06-16 13:30:00,75.8,54.5,29.88,SSW,202,10.3,12.4,48,0.00,,,0.00,Rainwise IP-100,2013-06-16 17:30:00,
2013-06-16 13:35:00,75.3,56.0,29.88,South,180,7.5,13.3,51,0.00,,,0.00,Rainwise IP-100,2013-06-16 17:35:00,
2013-06-16 13:40:00,74.6,57.5,29.87,SSE,157,9.1,12.6,55,0.00,,,0.00,Rainwise IP-100,2013-06-16 17:40:00,
2013-06-16 13:45:00,73.9,58.0,29.86,SSE,157,9.1,11.2,58,0.00,,,0.00,Rainwise IP-100,2013-06-16 17:45:00,
2013-06-16 13:50:00,73.4,59.5,29.86,South,180,11.0,11.4,61,0.00,,,0.00,Rainwise IP-100,2013-06-16 17:50:00,
2013-06-16 13:55:00,73.2,59.0,29.86,South,180,12.4,13.1,60,0.00,,,0.00,Rainwise IP-100,2013-06-16 17:55:00,
2013-06-16 14:00:00,73.3,58.0,29.86,SSW,202,11.2,13.1,59,0.00,,,0.00,Rainwise IP-100,2013-06-16 18:00:00,
2013-06-16 14:06:00,73.5,57.5,29.86,SSW,202,11.0,14.2,57,0.00,,,0.00,Rainwise IP-100,2013-06-16 18:06:00,
2013-06-16 14:11:00,73.9,57.5,29.85,South,180,10.3,14.5,56,0.00,,,0.00,Rainwise IP-100,2013-06-16 18:11:00,
2013-06-16 14:16:00,74.0,57.5,29.85,SSW,202,11.7,15.6,56,0.00,,,0.00,Rainwise IP-100,2013-06-16 18:16:00,
2013-06-16 14:21:00,74.0,57.5,29.84,SSW,202,13.8,17.3,56,0.00,,,0.00,Rainwise IP-100,2013-06-16 18:21:00,
2013-06-16 14:26:00,74.2,58.0,29.84,SSE,157,12.4,19.1,57,0.00,,,0.00,Rainwise IP-100,2013-06-16 18:26:00,
2013-06-16 14:31:00,74.0,59.0,29.84,SSW,202,12.1,16.1,59,0.00,,,0.00,Rainwise IP-100,2013-06-16 18:31:00,
2013-06-16 14:36:00,73.8,59.0,29.83,South,180,12.1,15.9,60,0.00,,,0.00,Rainwise IP-100,2013-06-16 18:36:00,
2013-06-16 14:41:00,73.6,59.5,29.83,SSE,157,13.1,14.7,61,0.00,,,0.00,Rainwise IP-100,2013-06-16 18:41:00,
2013-06-16 14:47:00,73.4,59.5,29.83,South,180,11.9,14.9,62,0.00,,,0.00,Rainwise IP-100,2013-06-16 18:47:00,
2013-06-16 14:52:00,73.3,60.5,29.83,SSE,157,8.4,12.4,64,0.00,,,0.00,Rainwise IP-100,2013-06-16 18:52:00,
2013-06-16 14:57:00,73.0,60.5,29.83,SSE,157,7.0,9.6,65,0.00,,,0.00,Rainwise IP-100,2013-06-16 18:57:00,
2013-06-16 15:02:00,72.5,61.5,29.83,SSE,157,5.6,7.9,68,0.00,,,0.00,Rainwise IP-100,2013-06-16 19:02:00,
2013-06-16 15:07:00,73.0,61.5,29.83,SSE,157,7.0,8.9,67,0.00,,,0.00,Rainwise IP-100,2013-06-16 19:07:00,
2013-06-16 15:12:00,74.1,61.5,29.82,South,180,7.7,11.9,65,0.00,,,0.00,Rainwise IP-100,2013-06-16 19:12:00,
2013-06-16 15:17:00,74.9,61.5,29.82,South,180,10.3,12.8,63,0.00,,,0.00,Rainwise IP-100,2013-06-16 19:17:00,
2013-06-16 15:22:00,75.4,61.0,29.81,SSW,202,10.5,14.2,61,0.00,,,0.00,Rainwise IP-100,2013-06-16 19:22:00,
2013-06-16 15:28:00,75.7,61.0,29.81,South,180,10.5,12.6,61,0.00,,,0.00,Rainwise IP-100,2013-06-16 19:28:00,
2013-06-16 15:33:00,75.6,61.0,29.81,South,180,11.4,15.4,61,0.00,,,0.00,Rainwise IP-100,2013-06-16 19:33:00,
2013-06-16 15:38:00,75.4,61.5,29.80,South,180,15.2,15.9,62,0.00,,,0.00,Rainwise IP-100,2013-06-16 19:38:00,
2013-06-16 15:43:00,75.6,62.0,29.81,South,180,14.0,17.0,63,0.00,,,0.00,Rainwise IP-100,2013-06-16 19:43:00,
2013-06-16 15:48:00,75.9,62.5,29.82,South,180,11.4,16.8,63,0.00,,,0.00,Rainwise IP-100,2013-06-16 19:48:00,
2013-06-16 15:53:00,76.3,63.0,29.82,South,180,12.8,15.4,64,0.00,,,0.00,Rainwise IP-100,2013-06-16 19:53:00,
2013-06-16 15:58:00,76.7,63.5,29.82,South,180,14.7,15.4,63,0.00,,,0.00,Rainwise IP-100,2013-06-16 19:58:00,
2013-06-16 16:04:00,76.9,63.5,29.82,South,180,4.7,15.2,63,0.00,,,0.00,Rainwise IP-100,2013-06-16 20:04:00,
2013-06-16 16:09:00,76.9,64.0,29.82,South,180,5.8,10.5,64,0.00,,,0.00,Rainwise IP-100,2013-06-16 20:09:00,
2013-06-16 16:14:00,77.1,64.0,29.82,SW,225,7.2,11.4,64,0.00,,,0.00,Rainwise IP-100,2013-06-16 20:14:00,
2013-06-16 16:19:00,77.5,64.0,29.82,SSW,202,6.5,14.2,63,0.00,,,0.00,Rainwise IP-100,2013-06-16 20:19:00,
2013-06-16 16:24:00,77.7,64.0,29.82,SSW,202,6.5,11.7,62,0.00,,,0.00,Rainwise IP-100,2013-06-16 20:24:00,
2013-06-16 16:29:00,77.6,64.0,29.82,SSW,202,7.7,11.0,62,0.00,,,0.00,Rainwise IP-100,2013-06-16 20:29:00,
2013-06-16 16:34:00,77.5,64.0,29.82,SSW,202,3.0,8.4,62,0.00,,,0.00,Rainwise IP-100,2013-06-16 20:34:00,
2013-06-16 16:39:00,77.3,64.0,29.82,WSW,247,1.2,10.0,63,0.00,,,0.00,Rainwise IP-100,2013-06-16 20:39:00,
2013-06-16 16:45:00,77.1,64.0,29.82,West,270,3.3,4.9,64,0.00,,,0.00,Rainwise IP-100,2013-06-16 20:45:00,
2013-06-16 16:50:00,77.0,64.0,29.82,SSW,202,1.9,7.5,64,0.00,,,0.00,Rainwise IP-100,2013-06-16 20:50:00,
2013-06-16 16:55:00,77.0,64.5,29.81,SSW,202,5.6,5.6,65,0.00,,,0.00,Rainwise IP-100,2013-06-16 20:55:00,
2013-06-16 17:00:00,77.1,64.5,29.81,SSW,202,5.6,7.5,65,0.00,,,0.00,Rainwise IP-100,2013-06-16 21:00:00,
2013-06-16 17:05:00,77.1,64.5,29.81,SSW,202,2.3,8.4,65,0.00,,,0.00,Rainwise IP-100,2013-06-16 21:05:00,
2013-06-16 17:10:00,77.1,64.0,29.80,WSW,247,3.5,6.8,64,0.00,,,0.00,Rainwise IP-100,2013-06-16 21:10:00,
2013-06-16 17:15:00,77.4,63.5,29.80,SW,225,3.5,8.6,62,0.00,,,0.00,Rainwise IP-100,2013-06-16 21:15:00,
2013-06-16 17:21:00,78.0,62.5,29.80,WSW,247,5.8,15.2,59,0.00,,,0.00,Rainwise IP-100,2013-06-16 21:21:00,
2013-06-16 17:26:00,78.8,61.5,29.80,WSW,247,9.3,14.2,56,0.00,,,0.00,Rainwise IP-100,2013-06-16 21:26:00,
2013-06-16 17:31:00,79.4,62.0,29.80,WSW,247,2.3,15.9,55,0.00,,,0.00,Rainwise IP-100,2013-06-16 21:31:00,
2013-06-16 17:36:00,79.7,61.5,29.79,WSW,247,12.4,14.0,54,0.00,,,0.00,Rainwise IP-100,2013-06-16 21:36:00,
2013-06-16 17:41:00,80.0,62.0,29.79,WSW,247,2.8,15.4,54,0.00,,,0.00,Rainwise IP-100,2013-06-16 21:41:00,
2013-06-16 17:46:00,80.1,62.0,29.80,West,270,8.2,15.9,54,0.00,,,0.00,Rainwise IP-100,2013-06-16 21:46:00,
2013-06-16 17:51:00,80.3,62.0,29.80,WSW,247,4.9,16.1,54,0.00,,,0.00,Rainwise IP-100,2013-06-16 21:51:00,
2013-06-16 17:56:00,80.5,62.5,29.79,West,270,9.8,13.1,54,0.00,,,0.00,Rainwise IP-100,2013-06-16 21:56:00,
2013-06-16 18:02:00,80.6,62.5,29.79,WSW,247,7.9,13.5,54,0.00,,,0.00,Rainwise IP-100,2013-06-16 22:02:00,
2013-06-16 18:07:00,80.6,62.5,29.79,SW,225,12.1,16.8,54,0.00,,,0.00,Rainwise IP-100,2013-06-16 22:07:00,
2013-06-16 18:12:00,80.6,62.5,29.79,SW,225,10.0,15.2,54,0.00,,,0.00,Rainwise IP-100,2013-06-16 22:12:00,
2013-06-16 18:17:00,80.6,63.0,29.79,WSW,247,5.6,13.1,55,0.00,,,0.00,Rainwise IP-100,2013-06-16 22:17:00,
2013-06-16 18:22:00,80.6,63.0,29.79,WSW,247,4.4,9.1,55,0.00,,,0.00,Rainwise IP-100,2013-06-16 22:22:00,
2013-06-16 18:27:00,80.6,63.0,29.79,WSW,247,2.1,7.2,55,0.00,,,0.00,Rainwise IP-100,2013-06-16 22:27:00,
2013-06-16 18:32:00,80.7,63.5,29.79,SSW,202,8.2,13.3,56,0.00,,,0.00,Rainwise IP-100,2013-06-16 22:32:00,
2013-06-16 18:37:00,80.7,63.5,29.79,WSW,247,6.8,12.8,56,0.00,,,0.00,Rainwise IP-100,2013-06-16 22:37:00,
2013-06-16 18:42:00,80.6,63.5,29.79,WSW,247,8.6,12.8,56,0.00,,,0.00,Rainwise IP-100,2013-06-16 22:42:00,
2013-06-16 18:48:00,80.5,63.5,29.79,WSW,247,11.2,17.3,56,0.00,,,0.00,Rainwise IP-100,2013-06-16 22:48:00,
2013-06-16 18:53:00,80.4,63.5,29.79,WSW,247,10.3,15.6,56,0.00,,,0.00,Rainwise IP-100,2013-06-16 22:53:00,
2013-06-16 18:58:00,80.4,63.5,29.79,SW,225,13.3,16.3,56,0.00,,,0.00,Rainwise IP-100,2013-06-16 22:58:00,
2013-06-16 19:03:00,80.5,63.0,29.78,WSW,247,8.2,21.2,55,0.00,,,0.00,Rainwise IP-100,2013-06-16 23:03:00,
2013-06-16 19:08:00,80.6,63.0,29.79,West,270,13.1,18.9,55,0.00,,,0.00,Rainwise IP-100,2013-06-16 23:08:00,
2013-06-16 19:13:00,80.6,63.0,29.79,WSW,247,7.5,14.7,55,0.00,,,0.00,Rainwise IP-100,2013-06-16 23:13:00,
2013-06-16 19:18:00,80.4,63.0,29.79,WNW,292,17.5,25.6,55,0.00,,,0.00,Rainwise IP-100,2013-06-16 23:18:00,
2013-06-16 19:24:00,80.2,62.5,29.80,WNW,292,14.5,23.3,55,0.00,,,0.00,Rainwise IP-100,2013-06-16 23:24:00,
2013-06-16 19:28:00,80.1,62.5,29.80,West,270,15.4,15.6,55,0.00,,,0.00,Rainwise IP-100,2013-06-16 23:28:00,
2013-06-16 19:33:00,80.0,63.0,29.80,WSW,247,11.0,18.7,56,0.00,,,0.00,Rainwise IP-100,2013-06-16 23:33:00,
2013-06-16 19:39:00,80.0,63.0,29.80,WNW,292,7.7,20.1,56,0.00,,,0.00,Rainwise IP-100,2013-06-16 23:39:00,
2013-06-16 19:44:00,79.9,63.0,29.80,WSW,247,5.6,20.5,56,0.00,,,0.00,Rainwise IP-100,2013-06-16 23:44:00,
2013-06-16 19:49:00,79.6,62.5,29.80,West,270,11.0,17.3,56,0.00,,,0.00,Rainwise IP-100,2013-06-16 23:49:00,
2013-06-16 19:54:00,79.3,63.0,29.80,WSW,247,9.3,16.3,57,0.00,,,0.00,Rainwise IP-100,2013-06-16 23:54:00,
2013-06-16 19:59:00,79.0,62.5,29.81,WSW,247,10.3,15.4,57,0.00,,,0.00,Rainwise IP-100,2013-06-16 23:59:00,
2013-06-16 20:04:00,78.8,62.5,29.81,SW,225,14.5,16.1,58,0.00,,,0.00,Rainwise IP-100,2013-06-17 00:04:00,
2013-06-16 20:09:00,78.5,63.0,29.81,West,270,7.2,15.2,59,0.00,,,0.00,Rainwise IP-100,2013-06-17 00:09:00,
2013-06-16 20:15:00,78.3,63.0,29.81,WSW,247,11.4,16.3,59,0.00,,,0.00,Rainwise IP-100,2013-06-17 00:15:00,
2013-06-16 20:20:00,78.1,63.0,29.82,WSW,247,11.4,20.3,60,0.00,,,0.00,Rainwise IP-100,2013-06-17 00:20:00,
2013-06-16 20:24:00,78.0,63.0,29.82,WSW,247,4.9,13.5,60,0.00,,,0.00,Rainwise IP-100,2013-06-17 00:24:00,
2013-06-16 20:29:00,77.8,63.0,29.81,WSW,247,9.3,19.4,60,0.00,,,0.00,Rainwise IP-100,2013-06-17 00:29:00,
2013-06-16 20:34:00,77.7,63.5,29.82,West,270,5.8,14.7,61,0.00,,,0.00,Rainwise IP-100,2013-06-17 00:34:00,
2013-06-16 20:39:00,77.5,63.5,29.82,WSW,247,5.1,12.6,61,0.00,,,0.00,Rainwise IP-100,2013-06-17 00:39:00,
2013-06-16 20:44:00,77.4,63.5,29.82,WSW,247,4.4,9.3,62,0.00,,,0.00,Rainwise IP-100,2013-06-17 00:44:00,
2013-06-16 20:49:00,77.2,63.5,29.83,WSW,247,8.6,11.4,62,0.00,,,0.00,Rainwise IP-100,2013-06-17 00:49:00,
2013-06-16 20:55:00,77.1,63.5,29.82,West,270,8.9,12.6,63,0.00,,,0.00,Rainwise IP-100,2013-06-17 00:55:00,
2013-06-16 21:00:00,77.0,63.5,29.83,WSW,247,6.1,10.0,63,0.00,,,0.00,Rainwise IP-100,2013-06-17 01:00:00,
2013-06-16 21:05:00,76.9,63.5,29.84,SSW,202,2.8,8.6,63,0.00,,,0.00,Rainwise IP-100,2013-06-17 01:05:00,
2013-06-16 21:10:00,76.6,63.5,29.84,SW,225,6.3,8.9,64,0.00,,,0.00,Rainwise IP-100,2013-06-17 01:10:00,
2013-06-16 21:15:00,76.4,63.5,29.84,WSW,247,4.9,11.0,64,0.00,,,0.00,Rainwise IP-100,2013-06-17 01:15:00,
2013-06-16 21:20:00,76.3,63.5,29.84,WSW,247,6.5,10.5,65,0.00,,,0.00,Rainwise IP-100,2013-06-17 01:20:00,
2013-06-16 21:25:00,76.3,63.5,29.84,West,270,5.6,9.8,65,0.00,,,0.00,Rainwise IP-100,2013-06-17 01:25:00,
2013-06-16 21:30:00,76.2,63.5,29.84,WSW,247,8.6,12.4,65,0.00,,,0.00,Rainwise IP-100,2013-06-17 01:30:00,
2013-06-16 21:35:00,76.1,63.5,29.85,WNW,292,8.6,10.3,66,0.00,,,0.00,Rainwise IP-100,2013-06-17 01:35:00,
2013-06-16 21:41:00,76.1,63.5,29.85,WSW,247,4.7,10.5,66,0.00,,,0.00,Rainwise IP-100,2013-06-17 01:41:00,
2013-06-16 21:46:00,76.1,63.5,29.85,WSW,247,2.3,6.8,66,0.00,,,0.00,Rainwise IP-100,2013-06-17 01:46:00,
2013-06-16 21:51:00,75.9,63.5,29.85,SW,225,5.8,5.8,66,0.00,,,0.00,Rainwise IP-100,2013-06-17 01:51:00,
2013-06-16 21:56:00,75.7,64.0,29.85,WSW,247,4.7,7.0,67,0.00,,,0.00,Rainwise IP-100,2013-06-17 01:56:00,
2013-06-16 22:01:00,75.6,64.0,29.86,WSW,247,3.3,7.0,67,0.00,,,0.00,Rainwise IP-100,2013-06-17 02:01:00,
2013-06-16 22:06:00,75.5,64.5,29.86,WSW,247,3.0,6.1,68,0.00,,,0.00,Rainwise IP-100,2013-06-17 02:06:00,
2013-06-16 22:11:00,75.4,64.5,29.86,WSW,247,3.0,6.5,68,0.00,,,0.00,Rainwise IP-100,2013-06-17 02:11:00,
2013-06-16 22:16:00,75.3,64.5,29.86,SW,225,4.4,7.7,68,0.00,,,0.00,Rainwise IP-100,2013-06-17 02:16:00,
2013-06-16 22:22:00,75.1,64.5,29.87,West,270,4.4,7.2,69,0.00,,,0.00,Rainwise IP-100,2013-06-17 02:22:00,
2013-06-16 22:27:00,75.0,64.5,29.87,West,270,7.0,7.0,69,0.00,,,0.00,Rainwise IP-100,2013-06-17 02:27:00,
2013-06-16 22:32:00,74.8,64.0,29.87,WSW,247,4.0,7.0,69,0.00,,,0.00,Rainwise IP-100,2013-06-17 02:32:00,
2013-06-16 22:37:00,74.6,64.5,29.86,West,270,6.5,7.0,70,0.00,,,0.00,Rainwise IP-100,2013-06-17 02:37:00,
2013-06-16 22:42:00,74.5,64.5,29.87,West,270,4.4,6.8,70,0.00,,,0.00,Rainwise IP-100,2013-06-17 02:42:00,
2013-06-16 22:47:00,74.4,64.5,29.87,WSW,247,2.8,5.6,71,0.00,,,0.00,Rainwise IP-100,2013-06-17 02:47:00,
2013-06-16 22:52:00,74.3,64.5,29.87,WSW,247,5.4,5.6,71,0.00,,,0.00,Rainwise IP-100,2013-06-17 02:52:00,
2013-06-16 22:58:00,74.1,64.5,29.87,WSW,247,3.7,5.6,72,0.00,,,0.00,Rainwise IP-100,2013-06-17 02:58:00,
2013-06-16 23:03:00,73.9,64.5,29.88,WSW,247,1.6,5.4,72,0.00,,,0.00,Rainwise IP-100,2013-06-17 03:03:00,
2013-06-16 23:08:00,73.8,64.0,29.88,WNW,292,0.0,3.0,72,0.00,,,0.00,Rainwise IP-100,2013-06-17 03:08:00,
2013-06-16 23:13:00,73.6,64.5,29.88,West,270,0.0,2.1,73,0.00,,,0.00,Rainwise IP-100,2013-06-17 03:13:00,
2013-06-16 23:18:00,73.5,64.5,29.88,West,270,0.0,0.0,73,0.00,,,0.00,Rainwise IP-100,2013-06-17 03:18:00,
2013-06-16 23:23:00,73.3,64.5,29.88,SSW,202,0.0,0.0,74,0.00,,,0.00,Rainwise IP-100,2013-06-17 03:23:00,
2013-06-16 23:28:00,73.2,64.5,29.88,SSE,157,2.6,3.5,74,0.00,,,0.00,Rainwise IP-100,2013-06-17 03:28:00,
2013-06-16 23:33:00,73.0,65.0,29.88,SSE,157,1.6,3.3,75,0.00,,,0.00,Rainwise IP-100,2013-06-17 03:33:00,
2013-06-16 23:39:00,72.7,64.5,29.89,NW,315,2.8,2.8,75,0.00,,,0.00,Rainwise IP-100,2013-06-17 03:39:00,
2013-06-16 23:44:00,72.0,64.5,29.88,NW,315,1.4,3.7,77,0.00,,,0.00,Rainwise IP-100,2013-06-17 03:44:00,
2013-06-16 23:49:00,71.2,64.5,29.88,NW,315,1.9,1.9,79,0.00,,,0.00,Rainwise IP-100,2013-06-17 03:49:00,
2013-06-16 23:54:00,70.8,64.5,29.88,NW,315,2.1,2.8,80,0.00,,,0.00,Rainwise IP-100,2013-06-17 03:54:00,
2013-06-16 23:59:00,70.5,64.0,29.89,NW,315,1.2,2.3,80,0.00,,,0.00,Rainwise IP-100,2013-06-17 03:59:00,